STARLINK-3837, 52358

Orbit data source: Space-Track

STARLINK-3837, 52358 is a payload satellite owned by SpaceX/Seattle (US) in LEO that was launched on Fri, 29 Apr 2022 UTC via an FALCON 9 launch vehicle from the Air Force Eastern Test Range (AFETR). Payload-class satellites include a variety of spacecraft equipped with specific instruments for various scientific and technological missions. These include communications satellites like Starlink; space stations such as the ISS; scientific satellites like the Hubble; Earth observation satellites from companies like Planet Labs, Umbra, and HawkEye 360; GPS; miniature CubeSats for education and research; and military/defense satellites.

Loading next visibility...
Identifier
52358, 2022-045AD
Orbit
LEO
Country
Flag of USUS
Related business
Manufacturer
SpaceX/Seattle
Mission
Operational Commercial Communications
Bus & Motor
STARLINK, Unknown motor
Mass
297 kg wet, ~275 kg dry
Launch date (UTC)
2022-04-29 (4 years ago)
Launch vehicle
FALCON 9
Launch site
Air Force Eastern Test Range (AFETR)
Object type
Payload
Rocket body
Debris
Shape & HBR
Box + 1 Pan, 10.1 m
Radar Cross Section
11.087 m², Large (>1 m²)

Expand to show TLE details & history
Last TLE update: 18 hours ago

TLE from 18 hours ago
0 STARLINK-3837
1 52358U 22045AD  25348.87588044  .00000250  00000-0  33785-4 0  9999
2 52358  53.2151 219.8628 0001511  88.8518 271.2647 15.08831157202983
Epoch: 2025-12-14T21:01Z
TLE epoch observation values (Epoch: 2025-12-14T21:01:16.070Z)
Latitude
-0.00002°
Longitude
-179.23669°
Altitude
540.645 km
Speed
7.593 km/s
True Right ascension
14h 39m 27s
True Declination
0° 00' 00"
Sunlit
Object was in daylight at epoch
Visualization orbit readout
Latitude
Unknown
Longitude
Unknown
Altitude
Unknown
Speed
Unknown
Apparent Right ascension
Unknown
Apparent Declination
Unknown
Sunlit
N/A
Visualization observer readout
Local Sidereal Time
13:24:45
Azimuth
Unknown
Elevation
Unknown
Doppler factor
Unknown
Orbital elements
Apogee altitude
541.061 km
Perigee altitude
538.97 km
Semi-major axis
6,918.153 km
Eccentricity
0.00015
Inclination
53.2151°
RAAN
219.8628°
Arg. of periapsis
88.8518°
True anomaly
271.24739°
Mean anomaly
271.2647°
Eccentric anomaly
271.25604°
Mean motion
3.77188 °/min
Orbital period
95.44 mins
BSTAR
0.000033785
Loading maneuver chart data...
Computing Atmospheric mass density...
Loading historical data...
Loading historical data...
Loading historical data...
Loading historical data...
Loading historical data...
Loading historical data...
Loading historical data...

Documentation

Showing up to 5 results
|